Llagostera (Gironès)





Hora UTC 07:05
Temperatura 16.7 ºC
Humedad 96.0 %
Presión 1013.0 hPa
Pluja 0.0 mm
Velocidad viento 4.8 km/h
Dirección viento

Datos diarios 2024-05-30



Hora UTC (invierno +1h; verano +2h)
Temperatura (ºC) Humedad (%) Presión (hPa) Velocidad viento (km/h) Precipitación (mm)
Hora UTC Aire Humedad Presión Vel. Dir. Vel. Max Dir. Intent. máx 5 min.
00:05 15.4 92.0 1014.6 0.0 0.0 0.0
00:15 15.4 93.0 1014.6 0.0 0.0 0.0
00:25 15.6 94.0 1014.6 0.0 0.0 0.0
00:35 15.7 94.0 1014.7 0.0 0.0 0.0
00:45 15.6 94.0 1014.5 4.8 4.8 0.0
00:55 15.4 93.0 1014.5 1.6 6.4 0.0
01:05 15.4 94.0 1014.5 0.0 6.4 0.0
01:15 14.8 93.0 1014.3 3.2 6.4 0.0
01:25 14.5 93.0 1014.2 3.2 6.4 0.0
01:35 14.0 93.0 1014.0 3.2 6.4 0.0
01:45 13.9 93.0 1014.1 0.0 6.4 0.0
01:55 13.7 93.0 1014.1 0.0 6.4 0.0
02:05 13.5 93.0 1013.9 0.0 6.4 0.0
02:15 12.9 93.0 1013.8 0.0 6.4 0.0
02:25 12.8 94.0 1013.8 0.0 6.4 0.0
02:35 12.8 94.0 1013.8 0.0 6.4 0.0
02:45 12.8 94.0 1013.6 0.0 6.4 0.0
02:55 12.4 94.0 1013.6 0.0 6.4 0.0
03:05 12.2 94.0 1013.5 0.0 6.4 0.0
03:15 12.2 94.0 1013.3 0.0 6.4 0.0
03:25 11.9 94.0 1013.2 0.0 6.4 0.0
03:35 11.8 94.0 1013.1 0.0 6.4 0.0
03:45 11.9 95.0 1013.1 3.2 6.4 0.0
03:55 11.6 95.0 1012.9 0.0 6.4 0.0
04:05 11.7 95.0 1012.9 0.0 6.4 0.0
04:15 11.8 96.0 1012.8 0.0 6.4 0.0
04:25 11.9 96.0 1012.8 6.4 6.4 0.0
04:35 11.4 95.0 1013.0 1.6 6.4 0.0
04:45 11.6 96.0 1012.9 0.0 6.4 0.0
04:55 11.7 96.0 1013.0 3.2 6.4 0.0
05:05 12.2 96.0 1013.0 1.6 6.4 0.0
05:15 12.8 96.0 1012.9 0.0 6.4 0.0
05:25 13.2 97.0 1013.0 0.0 6.4 0.0
05:35 13.9 97.0 1012.9 0.0 6.4 0.0
05:45 13.9 97.0 1012.9 0.0 6.4 0.0
05:55 14.3 97.0 1012.9 0.0 6.4 0.0
06:05 0.0
06:15 0.0
06:25 15.8 97.0 1012.9 0.0 6.4 0.0
06:35 16.1 97.0 1012.9 3.2 6.4 0.0
06:45 16.4 96.0 1012.9 6.4 9.7 0.0
06:55 16.7 96.0 1012.8 4.8 9.7 0.0
07:05 16.7 96.0 1013.0 4.8 9.7 0.0
Máxima 16.8 97.0 1014.7 6.4 9.7 0.0
Mínima 11.4 92.0 1012.8
Total 0.0